Location: Hungerford
(51.4167°N, 1.5167°W)
Time: 08:44:42
(UTC+00:00)

Cosmos 1048 Rocket - Pass Details

Date: 22 January 2021
Orbit: 744 x 791 km, 74.0° (Epoch: 24 February)

Event Time Altitude Azimuth Distance (km) Brightness Sun altitude
Rises 20:39:28 0° 332° (NNW) 3,197 7.7 -37.0°
Reaches altitude 10° 20:41:52 10° 327° (NNW) 2,270 6.9 -37.3°
Enters shadow 20:43:19 19° 322° (NW) 1,739 6.2 -37.5°
